[[{"header":{"parameterUnit":"m.s-1","parameterCategory":2,"la1":30.2991,"la2":30.254,"lo1":-89.0895,"lo2":-89.0444,"dy":0.0017,"dx":0.0017,"nx":28,"ny":28,"refTime":"2024-02-17T09:00:00:Z","depth":"0","parameterNumber":2,"parameterNumberName":"U-component_of_CURRENTS"},"data":[0,0,0,0,0,0,0,0,0,0,0,0,0,0,0,0,0,0,0,0,0,0,0,0,0,0,0,0,0,0,0,0,0,0,0,0,0,0,0,0,0,0,0,0,0,0,0,0,0,0,0,0,0,0,0,0,0,0,0.3251,0.3251,0,0.3258,0.3258,0.3258,0.3238,0.3238,0.3237,0.3237,0.3209,0.3208,0.3208,0,0,0,0,0,0,0,0,0,0,0,0,0,0.3224,0.3224,0.3251,0.3251,0.3252,0.3258,0.3258,0.3258,0.3238,0.3238,0.3237,0.3237,0.3209,0.3208,0.3208,0,0,0,0,0,0,0,0,0,0,0,0,0,0.3231,0.3224,0.3251,0.3244,0.3244,0.3258,0.3258,0.3258,0.3238,0.3238,0.3237,0.3237,0.3209,0.3208,0.3208,0.3216,0,0,0.3206,0.3206,0,0,0,0,0,0,0,0,0.3231,0.3232,0.3245,0.3245,0.3245,0.3249,0.3238,0.3243,0.3238,0.3238,0.3237,0.3236,0.3221,0.3219,0.3219,0.3215,0.3213,0.3206,0.3206,0.3205,0.3205,0,0,0,0,0,0,0,0.323,0.3232,0.3251,0.3246,0.3245,0.3242,0.3242,0.3239,0.323,0.3238,0.3237,0.3242,0.322,0.322,0.3218,0.3213,0.3206,0.3205,0.3205,0.3205,0.3247,0.3248,0,0,0,0,0,0,0.3235,0.3231,0.3251,0.3252,0.3239,0.3243,0.3243,0.3246,0.3231,0.3229,0.3242,0.3241,0.3221,0.3219,0.3217,0.3249,0.3205,0.3205,0.3204,0.3246,0.3247,0.3249,0,0,0,0,0,0,0.3234,0.3237,0.3251,0.3244,0.3246,0.3245,0.3248,0.3247,0.3251,0.3235,0.3232,0.3249,0.322,0.3218,0.3225,0.3247,0.3205,0.3204,0.3244,0.3246,0.3248,0.3299,0,0,0,0,0,0,0.3233,0.3236,0.3239,0.3244,0.3246,0.3267,0.3248,0.3247,0.3256,0.3254,0.324,0.3236,0.322,0.3226,0.3225,0.3245,0.3204,0.3242,0.3245,0.3247,0.3295,0.3302,0.3308,0,0,0,0,0,0.3232,0.3237,0.3239,0.3242,0.325,0.3268,0.3269,0.3264,0.3257,0.3265,0.3258,0.3237,0.3243,0.3227,0.3225,0.3246,0.3241,0.3244,0.3247,0.3292,0.3301,0.3308,0,0,0,0,0,0,0.3221,0.3236,0.3238,0.3245,0.3261,0.3266,0.3271,0.3272,0.3273,0.327,0.3251,0.3248,0.3268,0.3252,0.3235,0.3268,0.324,0.3243,0.3275,0.3283,0.329,0.3306,0.3203,0,0,0,0,0,0.3223,0.3232,0.3248,0.3255,0.3265,0.3271,0.3278,0.328,0.3283,0.3282,0.3273,0.327,0.328,0.3277,0.3281,0.3292,0.3303,0.3307,0.3313,0.3319,0.3333,0.3376,0.3388,0.326,0.326,0.326,0,0,0.3219,0.323,0.3233,0.3254,0.3263,0.3283,0.3273,0.329,0.3305,0.328,0.3293,0.3295,0.3291,0.331,0.3317,0.3297,0.3362,0.3323,0.3328,0.3339,0.3381,0.3393,0.3405,0.3262,0.3262,0.3261,0,0,0.3221,0.323,0.3241,0.3258,0.3282,0.3293,0.3302,0.3316,0.3323,0.3339,0.3334,0.3352,0.3349,0.336,0.3363,0.3409,0.3403,0.3409,0.3446,0.3489,0.35,0.3509,0.3541,0.3553,0.3404,0.3404,0.3404,0,0.3217,0.3233,0.3247,0.3266,0.3285,0.3301,0.3324,0.3336,0.335,0.3367,0.3348,0.3386,0.3376,0.3419,0.3435,0.3425,0.3446,0.3412,0.3498,0.3507,0.3517,0.3547,0.356,0.3407,0.3407,0.3407,0.3406,0,0.3227,0.3245,0.3255,0.3287,0.331,0.3333,0.3361,0.3385,0.3395,0.3407,0.3452,0.3451,0.3475,0.3477,0.3466,0.3532,0.3525,0.3507,0.3476,0.3533,0.3561,0.3573,0.3411,0.341,0.3409,0.3409,0,0,0.3197,0.3253,0.3253,0.3267,0.3325,0.3334,0.339,0.3436,0.3467,0.3484,0.3531,0.3551,0.356,0.3567,0.3566,0.3596,0.3671,0.358,0.3581,0.3611,0.3768,0.375,0.3761,0.367,0.3673,0.3675,0.3762,0,0.32,0.3231,0.3271,0.3299,0.3317,0.3371,0.3412,0.3457,0.3502,0.3549,0.3577,0.3612,0.3591,0.361,0.3644,0.3673,0.3707,0.365,0.3711,0.3713,0.3689,0.3776,0.3637,0.3702,0.3774,0.3776,0.3778,0,0.3188,0.3213,0.3249,0.3299,0.3313,0.3339,0.3419,0.3462,0.3553,0.359,0.3655,0.3681,0.3748,0.3711,0.3799,0.3767,0.3778,0.3788,0.3791,0.3767,0.3719,0.3658,0.3722,0.3625,0.3797,0.3795,0.3794,0,0.3132,0.3187,0.3212,0.323,0.33,0.3331,0.3373,0.3468,0.3528,0.3628,0.3684,0.376,0.3808,0.3848,0.3882,0.385,0.3974,0.3924,0.3918,0.3916,0.3807,0.3791,0.3782,0.3987,0.3987,0.3987,0.3986,0,0.311,0.3118,0.318,0.3186,0.322,0.3281,0.3347,0.3411,0.3533,0.3604,0.3694,0.3782,0.3848,0.3926,0.3931,0.3983,0.4017,0.3956,0.3952,0.382,0.3806,0.3722,0.3679,0.399,0.3989,0.3989,0.3988,0,0.3044,0.3088,0.3109,0.3174,0.3195,0.3214,0.3333,0.3383,0.3502,0.3613,0.3652,0.3824,0.3932,0.399,0.4071,0.4049,0.398,0.4087,0.393,0.3906,0.379,0.3756,0.3631,0.3524,0.4097,0.4098,0.4098,0,0.3015,0.302,0.3082,0.3096,0.3127,0.3179,0.3222,0.3353,0.342,0.3635,0.3676,0.3851,0.3946,0.4086,0.4098,0.4127,0.3994,0.4001,0.3909,0.3797,0.3755,0.3596,0.3503,0.378,0.3778,0.3776,0.3774,0,0.296,0.2983,0.3004,0.3037,0.3071,0.3116,0.3184,0.3246,0.3397,0.3506,0.3658,0.3766,0.3938,0.3951,0.4023,0.4017,0.3812,0.3962,0.3882,0.3555,0.3343,0.3233,0.3708,0.3757,0.3759,0.376,0.3761,0.3762,0.2913,0.2913,0.2942,0.296,0.2996,0.3019,0.3016,0.3115,0.3214,0.3325,0.353,0.362,0.3759,0.3865,0.385,0.3747,0.3712,0.3615,0.3599,0.3461,0.3301,0.375,0.3772,0.3774,0.3775,0.3777,0.3778,0,0.2835,0.2841,0.286,0.2863,0.2844,0.2904,0.2951,0.2928,0.2973,0.3148,0.3256,0.3393,0.3442,0.3527,0.3541,0.3405,0.3217,0.3291,0.3023,0.2961,0.34,0.3331,0.3213,0.3213,0.3213,0.3213,0.3213,0.3213,0.2794,0.2766,0.2768,0.2697,0.2695,0.2622,0.2616,0.2621,0.2697,0.2777,0.2856,0.2993,0.3228,0.3323,0.3237,0.3147,0.2887,0.2738,0.2731,0.3043,0.3069,0.3095,0.3019,0.2838,0.2837,0.2144,0.2139,0.2135]},{"header":{"parameterUnit":"m.s-1","parameterCategory":2,"la1":30.2991,"la2":30.254,"lo1":-89.0895,"lo2":-89.0444,"dy":0.0017,"dx":0.0017,"nx":28,"ny":28,"refTime":"2024-02-17T09:00:00:Z","depth":"0","parameterNumber":3,"parameterNumberName":"V-component_of_CURRENTS"},"data":[0,0,0,0,0,0,0,0,0,0,0,0,0,0,0,0,0,0,0,0,0,0,0,0,0,0,0,0,0,0,0,0,0,0,0,0,0,0,0,0,0,0,0,0,0,0,0,0,0,0,0,0,0,0,0,0,0,0,0.007,0.0069,0,0.0019,0.0018,0.0018,-0.0022,-0.0023,-0.0023,-0.0023,-0.0101,-0.0103,-0.0105,0,0,0,0,0,0,0,0,0,0,0,0,0,0.0073,0.0073,0.007,0.0069,0.0069,0.0019,0.0018,0.0017,-0.0022,-0.0023,-0.0023,-0.0023,-0.01,-0.0103,-0.0105,0,0,0,0,0,0,0,0,0,0,0,0,0,0.005,0.0073,0.007,0.0045,0.0042,0.0019,0.0018,0.0017,-0.0022,-0.0023,-0.0023,-0.0023,-0.01,-0.0103,-0.0105,-0.0118,0,0,-0.0114,-0.0115,0,0,0,0,0,0,0,0,0.0051,0.0049,0.0049,0.0047,0.0044,0.0007,-0.0009,-0.0029,-0.0022,-0.0,-0.0023,-0.0023,-0.0066,-0.0072,-0.0084,-0.0122,-0.0125,-0.0114,-0.0116,-0.0117,-0.0118,0,0,0,0,0,0,0,0.0053,0.0051,0.0047,0.0049,0.0046,0.0016,0.0013,-0.0013,-0.0033,-0.0002,-0.0005,-0.0006,-0.0068,-0.0081,-0.0086,-0.0126,-0.0114,-0.0117,-0.0119,-0.012,-0.0177,-0.0177,0,0,0,0,0,0,0.0068,0.0053,0.0049,0.0046,0.005,0.0017,0.0013,0.0017,-0.0033,-0.004,-0.0006,-0.0008,-0.0076,-0.0082,-0.0089,-0.0089,-0.0117,-0.012,-0.0122,-0.0177,-0.0177,-0.0177,0,0,0,0,0,0,0.0068,0.0068,0.0051,0.005,0.0046,0.0018,0.0022,0.0016,0.0008,-0.0035,-0.0043,-0.0007,-0.0076,-0.0085,-0.0103,-0.0093,-0.0121,-0.0124,-0.0178,-0.0177,-0.0177,-0.0101,0,0,0,0,0,0,0.0068,0.0068,0.0075,0.0051,0.0047,0.0048,0.0022,0.0015,0.0008,0.0005,-0.0038,-0.0046,-0.0077,-0.0099,-0.0106,-0.0098,-0.0126,-0.0178,-0.0177,-0.0177,-0.0104,-0.0098,-0.0093,0,0,0,0,0,0.0069,0.0085,0.0076,0.0075,0.0057,0.0049,0.0044,0.002,0.0009,0.0011,-0.0018,-0.0045,-0.0102,-0.01,-0.0109,-0.0101,-0.0178,-0.0178,-0.0177,-0.0106,-0.0099,-0.0094,0,0,0,0,0,0,0.0088,0.0082,0.0071,0.0084,0.0071,0.0043,0.0043,0.0028,0.0006,0.0003,-0.004,-0.0049,-0.0064,-0.0094,-0.0091,-0.0118,-0.0145,-0.0147,-0.0089,-0.0082,-0.0077,-0.0054,-0.0129,0,0,0,0,0,0.0097,0.0107,0.0091,0.0101,0.0097,0.0071,0.0064,0.0051,0.0029,0.0019,-0.0011,-0.0044,-0.007,-0.0083,-0.0113,-0.0124,-0.0155,-0.0127,-0.0121,-0.0117,-0.0105,-0.0145,-0.0142,-0.0175,-0.0175,-0.0175,0,0,0.0107,0.0105,0.011,0.0106,0.0092,0.0102,0.0066,0.0064,0.0072,0.0014,0.0011,-0.0027,-0.007,-0.0083,-0.0093,-0.0105,-0.0124,-0.0116,-0.0111,-0.0102,-0.0144,-0.0141,-0.0138,-0.0175,-0.0175,-0.0175,0,0,0.0137,0.0131,0.0151,0.0146,0.0137,0.0126,0.0131,0.0108,0.0096,0.0086,0.0048,0.002,-0.0021,-0.0047,-0.0067,-0.0051,-0.0096,-0.0064,-0.0016,-0.0055,-0.0052,-0.005,-0.0084,-0.0086,-0.0059,-0.0059,-0.0059,0,0.0149,0.0174,0.0154,0.0171,0.0178,0.0144,0.017,0.0153,0.0127,0.0122,0.0096,0.0039,-0.0003,-0.0013,-0.0011,-0.0037,-0.0066,-0.0033,-0.0046,-0.0045,-0.0044,-0.008,-0.0083,-0.0056,-0.0056,-0.0056,-0.0057,0,0.0195,0.0213,0.0225,0.0241,0.0244,0.0259,0.0242,0.0238,0.0217,0.0196,0.0174,0.0115,0.0084,0.006,0.0028,0.0018,-0.0006,-0.0035,-0.0057,-0.0036,-0.0075,-0.008,-0.005,-0.0052,-0.0053,-0.0054,0,0,0.0232,0.0254,0.026,0.0285,0.0285,0.0299,0.0309,0.0313,0.033,0.028,0.029,0.0226,0.0189,0.0164,0.0115,0.0078,0.005,0.0031,0.0027,0.0006,-0.0032,-0.0036,-0.0041,0.0019,0.0019,0.0019,-0.0061,0,0.0278,0.0335,0.0329,0.0387,0.0419,0.0396,0.0411,0.0406,0.0389,0.0386,0.0316,0.03,0.023,0.0217,0.0169,0.0085,0.0042,0.0074,-0.0057,-0.0061,-0.006,-0.0045,-0.0008,-0.0074,-0.0065,-0.0066,-0.0066,0,0.0331,0.0367,0.043,0.0474,0.0484,0.0506,0.0539,0.0551,0.0528,0.0512,0.0477,0.0418,0.0362,0.0294,0.0164,0.0189,0.0088,0.0012,0.0007,-0.0023,-0.0072,-0.0096,-0.0082,-0.0239,-0.0073,-0.0073,-0.0072,0,0.0387,0.0441,0.05,0.0513,0.0549,0.057,0.0589,0.0587,0.062,0.0596,0.0607,0.0519,0.0491,0.0353,0.0196,0.0177,0.0051,-0.0,-0.01,-0.0102,-0.0109,-0.011,-0.0252,-0.0098,-0.0098,-0.0097,-0.0097,0,0.0446,0.0494,0.0531,0.0563,0.0638,0.0637,0.0709,0.0707,0.0728,0.0789,0.068,0.0704,0.0505,0.0406,0.0238,0.0073,0.008,-0.0083,-0.0119,-0.0082,-0.0079,-0.0248,-0.0346,-0.01,-0.01,-0.0099,-0.0099,0,0.05,0.0518,0.0593,0.0645,0.0666,0.0723,0.08,0.0857,0.0854,0.0931,0.0928,0.0849,0.0727,0.0519,0.0307,0.0149,-0.0116,-0.0095,-0.0032,-0.0059,-0.0305,-0.0399,-0.0584,-0.0643,-0.0222,-0.0223,-0.0223,0,0.0531,0.0575,0.0659,0.0712,0.0738,0.0822,0.0885,0.0919,0.0998,0.1035,0.1086,0.0984,0.0956,0.0641,0.0342,0.0054,-0.012,-0.0119,-0.0158,-0.0304,-0.0437,-0.0507,-0.0548,-0.0144,-0.0144,-0.0144,-0.0143,0,0.0597,0.0621,0.0685,0.0796,0.0874,0.0981,0.1077,0.1157,0.1219,0.1284,0.1354,0.1329,0.1044,0.0784,0.0381,0.0168,-0.0216,-0.0125,-0.0295,-0.0397,-0.0464,-0.0541,-0.011,-0.0142,-0.0142,-0.0142,-0.0142,-0.0142,0.0642,0.0699,0.078,0.0889,0.099,0.1125,0.1224,0.1345,0.1483,0.1603,0.1568,0.1581,0.1178,0.0644,0.0344,-0.0193,-0.0216,-0.0359,-0.0464,-0.0524,-0.0572,-0.0129,-0.0189,-0.0189,-0.019,-0.019,-0.019,0,0.0703,0.0767,0.0869,0.1,0.1125,0.1168,0.1346,0.1461,0.1642,0.1768,0.1838,0.1657,0.117,0.065,-0.0071,-0.0451,-0.0591,-0.0672,-0.0771,-0.0799,-0.042,-0.0405,-0.0488,-0.0488,-0.0488,-0.0488,-0.0487,-0.0487,0.0734,0.0837,0.089,0.1091,0.1191,0.1364,0.1474,0.1648,0.1785,0.1946,0.1986,0.198,0.1573,0.0283,-0.0594,-0.0805,-0.1053,-0.1121,-0.1259,-0.1012,-0.0991,-0.097,-0.0979,-0.1182,-0.1183,-0.1563,-0.1567,-0.157]}],[{"header":{"parameterUnit":"m.s-1","parameterCategory":2,"la1":30.2991,"la2":30.254,"lo1":-89.0895,"lo2":-89.0444,"dy":0.0017,"dx":0.0017,"nx":28,"ny":28,"refTime":"2024-02-17T09:00:00:Z","depth":"2","parameterNumber":2,"parameterNumberName":"U-component_of_CURRENTS"},"data":[0,0,0,0,0,0,0,0,0,0,0,0,0,0,0,0,0,0,0,0,0,0,0,0,0,0,0,0,0,0,0,0,0,0,0,0,0,0,0,0,0,0,0,0,0,0,0,0,0,0,0,0,0,0,0,0,0,0,0.2878,0.2879,0,0.2893,0.2893,0.2893,0.2887,0.2887,0.2887,0.2887,0.2879,0.2879,0.2879,0,0,0,0,0,0,0,0,0,0,0,0,0,0.2843,0.2843,0.2878,0.2879,0.2879,0.2893,0.2893,0.2893,0.2887,0.2887,0.2887,0.2886,0.2879,0.2879,0.2879,0,0,0,0,0,0,0,0,0,0,0,0,0,0.2856,0.2844,0.2878,0.2879,0.288,0.2893,0.2893,0.2893,0.2887,0.2887,0.2887,0.2886,0.2879,0.2879,0.2879,0.2883,0,0,0.2879,0.2879,0,0,0,0,0,0,0,0,0.2855,0.2857,0.2879,0.2879,0.288,0.289,0.2878,0.2889,0.2887,0.2882,0.2887,0.2886,0.2882,0.2882,0.2883,0.2883,0.2883,0.2879,0.2879,0.2879,0.2879,0,0,0,0,0,0,0,0.2854,0.2856,0.2882,0.2879,0.288,0.2878,0.288,0.288,0.2881,0.2882,0.2883,0.2888,0.2882,0.2883,0.2882,0.2883,0.2879,0.2879,0.2879,0.2879,0.2936,0.2937,0,0,0,0,0,0,0.2857,0.2856,0.2882,0.2883,0.2869,0.2879,0.2881,0.2885,0.2882,0.2882,0.2888,0.2887,0.2883,0.2882,0.2882,0.2926,0.2879,0.2879,0.2879,0.2934,0.2936,0.2938,0,0,0,0,0,0,0.2856,0.2859,0.2881,0.2871,0.2874,0.288,0.2885,0.2885,0.2898,0.2886,0.2886,0.2901,0.2883,0.2882,0.2899,0.2924,0.2879,0.2879,0.2933,0.2935,0.2937,0.2989,0,0,0,0,0,0,0.2855,0.2859,0.2865,0.2871,0.2875,0.29,0.2886,0.2886,0.2902,0.2901,0.2898,0.2896,0.2883,0.2899,0.2899,0.2923,0.2879,0.2931,0.2934,0.2936,0.2985,0.2992,0.2999,0,0,0,0,0,0.2854,0.2861,0.2866,0.2869,0.2883,0.2901,0.2903,0.2904,0.2903,0.2913,0.2914,0.2897,0.2918,0.29,0.2899,0.2924,0.2929,0.2933,0.2936,0.2982,0.2991,0.2999,0,0,0,0,0,0,0.2846,0.2862,0.2866,0.2878,0.2895,0.2901,0.2911,0.2915,0.2924,0.2926,0.2912,0.2911,0.294,0.2927,0.2908,0.2952,0.2922,0.2926,0.2958,0.2966,0.2973,0.2987,0.2879,0,0,0,0,0,0.2849,0.2861,0.2877,0.2888,0.29,0.291,0.2918,0.2924,0.2932,0.2936,0.2934,0.2938,0.2953,0.2954,0.2962,0.2979,0.2988,0.2998,0.3005,0.3011,0.3023,0.3063,0.3075,0.2949,0.2949,0.2949,0,0,0.2848,0.286,0.2866,0.2888,0.2901,0.2921,0.2914,0.2936,0.2954,0.2934,0.2958,0.2965,0.2966,0.2991,0.3002,0.2981,0.3052,0.3015,0.302,0.303,0.3068,0.308,0.3091,0.2952,0.2951,0.2951,0,0,0.2853,0.2867,0.288,0.2898,0.2925,0.2936,0.2948,0.2966,0.2978,0.3002,0.3001,0.3026,0.3032,0.3044,0.3049,0.31,0.3093,0.3104,0.3141,0.318,0.319,0.32,0.3227,0.3239,0.31,0.31,0.31,0,0.2853,0.2871,0.2888,0.2908,0.2928,0.2947,0.2971,0.2987,0.3008,0.3028,0.3017,0.3065,0.306,0.3105,0.3123,0.3116,0.3135,0.3106,0.3189,0.3198,0.3207,0.3233,0.3245,0.3103,0.3102,0.3102,0.3102,0,0.2866,0.2887,0.2899,0.2932,0.2958,0.2982,0.3013,0.3041,0.3058,0.3073,0.3126,0.3132,0.3162,0.3166,0.3158,0.3224,0.3217,0.3198,0.3166,0.3223,0.3246,0.3258,0.3107,0.3106,0.3105,0.3104,0,0,0.2843,0.2899,0.2901,0.2916,0.2975,0.2986,0.3044,0.3092,0.3126,0.3152,0.3203,0.3232,0.3245,0.3255,0.3256,0.3285,0.3358,0.3271,0.3272,0.3296,0.3446,0.3408,0.3416,0.3357,0.3359,0.3361,0.3438,0,0.2849,0.2881,0.2921,0.2953,0.2972,0.3025,0.3069,0.3117,0.3165,0.3216,0.3249,0.3291,0.3275,0.3299,0.3332,0.3359,0.3391,0.3339,0.339,0.3392,0.3348,0.3429,0.3153,0.3196,0.3449,0.3451,0.3452,0,0.2842,0.2866,0.2905,0.2956,0.2971,0.3,0.3083,0.3127,0.3219,0.3261,0.3329,0.3358,0.3426,0.3395,0.3477,0.3447,0.3458,0.3467,0.347,0.3426,0.3376,0.318,0.3207,0.3471,0.3469,0.3468,0.3467,0,0.2792,0.2846,0.2875,0.2893,0.2963,0.2999,0.3043,0.3138,0.3198,0.3302,0.3359,0.3435,0.3484,0.3522,0.3553,0.3525,0.3634,0.359,0.3566,0.3562,0.3333,0.3306,0.3649,0.3649,0.3649,0.3649,0.3648,0,0.2772,0.2784,0.2848,0.2856,0.2894,0.2957,0.3027,0.3092,0.3212,0.3282,0.3374,0.3453,0.3522,0.3591,0.3597,0.3632,0.3673,0.3599,0.3592,0.3343,0.3318,0.3554,0.3542,0.3651,0.3651,0.365,0.365,0,0.2712,0.2756,0.2781,0.2848,0.2873,0.2897,0.3018,0.3066,0.3188,0.3296,0.3337,0.3493,0.3587,0.3644,0.3716,0.3687,0.3715,0.3709,0.3416,0.3373,0.3603,0.3593,0.3695,0.3695,0.3694,0.3694,0.3694,0,0.2685,0.2693,0.2758,0.2775,0.2809,0.2867,0.2913,0.3043,0.311,0.3311,0.335,0.3507,0.3579,0.3691,0.3681,0.3698,0.3742,0.3442,0.3339,0.3632,0.3614,0.3605,0.3595,0.3048,0.3043,0.3038,0.3035,0,0.2632,0.266,0.2682,0.272,0.2758,0.2803,0.2877,0.2932,0.3083,0.3182,0.331,0.3393,0.3524,0.3438,0.3489,0.3457,0.3419,0.3354,0.374,0.3092,0.3032,0.3012,0.3021,0.2995,0.2999,0.3001,0.3004,0.3005,0.2589,0.259,0.2622,0.2645,0.2685,0.2706,0.2704,0.2799,0.2886,0.2981,0.3153,0.3174,0.3233,0.3183,0.3102,0.3042,0.327,0.3103,0.3112,0.3128,0.3052,0.2996,0.2937,0.294,0.2943,0.2946,0.2948,0,0.2514,0.2522,0.2542,0.255,0.2536,0.2601,0.2645,0.2616,0.2647,0.2775,0.2851,0.2681,0.2654,0.2701,0.2554,0.2574,0.2501,0.2466,0.2328,0.2373,0.2412,0.2293,0.198,0.1976,0.1973,0.197,0,0,0.2474,0.2447,0.2448,0.2386,0.2395,0.2333,0.2325,0.2316,0.2357,0.2347,0.2345,0.2547,0.2639,0.2274,0.2243,0.2073,0.2196,0.2,0.2786,0.267,0.2703,0.2805,0.2679,0,0,0,0,0]},{"header":{"parameterUnit":"m.s-1","parameterCategory":2,"la1":30.2991,"la2":30.254,"lo1":-89.0895,"lo2":-89.0444,"dy":0.0017,"dx":0.0017,"nx":28,"ny":28,"refTime":"2024-02-17T09:00:00:Z","depth":"2","parameterNumber":3,"parameterNumberName":"V-component_of_CURRENTS"},"data":[0,0,0,0,0,0,0,0,0,0,0,0,0,0,0,0,0,0,0,0,0,0,0,0,0,0,0,0,0,0,0,0,0,0,0,0,0,0,0,0,0,0,0,0,0,0,0,0,0,0,0,0,0,0,0,0,0,0,0.0234,0.0233,0,0.0187,0.0186,0.0186,0.0149,0.0149,0.0149,0.0149,0.0078,0.0077,0.0075,0,0,0,0,0,0,0,0,0,0,0,0,0,0.0237,0.0237,0.0234,0.0233,0.0233,0.0187,0.0186,0.0186,0.0149,0.0149,0.0149,0.0149,0.0079,0.0077,0.0075,0,0,0,0,0,0,0,0,0,0,0,0,0,0.0216,0.0238,0.0234,0.0211,0.0208,0.0187,0.0186,0.0185,0.0149,0.0149,0.0149,0.0149,0.0079,0.0077,0.0074,0.0064,0,0,0.0067,0.0066,0,0,0,0,0,0,0,0,0.0217,0.0216,0.0214,0.0212,0.0209,0.0175,0.0162,0.0144,0.0149,0.017,0.0149,0.0148,0.011,0.0105,0.0094,0.0061,0.0058,0.0066,0.0065,0.0064,0.0063,0,0,0,0,0,0,0,0.0219,0.0217,0.0213,0.0214,0.0211,0.0184,0.0181,0.0158,0.014,0.0168,0.0166,0.0164,0.0108,0.0097,0.0092,0.0057,0.0066,0.0064,0.0063,0.0062,0.0009,0.0009,0,0,0,0,0,0,0.0232,0.0219,0.0215,0.0212,0.0215,0.0185,0.0181,0.0185,0.0141,0.0134,0.0164,0.0162,0.0101,0.0095,0.009,0.0088,0.0064,0.0061,0.006,0.0009,0.0009,0.0009,0,0,0,0,0,0,0.0232,0.0232,0.0217,0.0215,0.0212,0.0186,0.019,0.0184,0.0176,0.0138,0.0131,0.0162,0.0101,0.0093,0.0076,0.0084,0.006,0.0058,0.0008,0.0009,0.0009,0.0075,0,0,0,0,0,0,0.0232,0.0232,0.0238,0.0217,0.0212,0.0213,0.019,0.0184,0.0176,0.0173,0.0134,0.0127,0.01,0.008,0.0074,0.008,0.0056,0.0008,0.0009,0.0009,0.0073,0.0077,0.0081,0,0,0,0,0,0.0233,0.0247,0.0239,0.0238,0.0222,0.0213,0.0209,0.0187,0.0176,0.0177,0.0152,0.0128,0.0077,0.0079,0.0071,0.0077,0.0008,0.0008,0.0009,0.0071,0.0076,0.0081,0,0,0,0,0,0,0.0251,0.0244,0.0235,0.0246,0.0233,0.0208,0.0208,0.0193,0.0173,0.017,0.0133,0.0124,0.011,0.0084,0.0087,0.0061,0.0037,0.0036,0.0087,0.0092,0.0097,0.0118,0.0054,0,0,0,0,0,0.0258,0.0268,0.0253,0.0261,0.0257,0.0233,0.0226,0.0214,0.0194,0.0185,0.0157,0.0127,0.0104,0.0092,0.0066,0.0055,0.0025,0.0052,0.0056,0.006,0.0071,0.003,0.0033,0.001,0.001,0.001,0,0,0.0267,0.0265,0.027,0.0265,0.0252,0.0261,0.0228,0.0225,0.0231,0.018,0.0177,0.0142,0.0105,0.0092,0.0083,0.0072,0.005,0.0061,0.0065,0.0073,0.0031,0.0033,0.0035,0.001,0.001,0.001,0,0,0.0294,0.0288,0.0306,0.0301,0.0292,0.0281,0.0285,0.0263,0.0252,0.0242,0.0208,0.0182,0.0146,0.0121,0.0105,0.0117,0.0075,0.0105,0.0146,0.0107,0.0109,0.011,0.0076,0.0074,0.0108,0.0108,0.0108,0,0.0304,0.0327,0.0308,0.0323,0.033,0.0297,0.032,0.0304,0.0279,0.0274,0.025,0.0198,0.0161,0.0151,0.0152,0.0128,0.0101,0.0132,0.0114,0.0115,0.0115,0.0079,0.0076,0.0112,0.0111,0.0111,0.0111,0,0.0345,0.0362,0.0372,0.0386,0.0389,0.0401,0.0385,0.0379,0.0359,0.034,0.0318,0.0264,0.0236,0.0214,0.0186,0.0172,0.0151,0.0125,0.0105,0.0121,0.0083,0.0078,0.0116,0.0115,0.0114,0.0113,0,0,0.0376,0.0398,0.0403,0.0426,0.0425,0.0438,0.0446,0.0448,0.046,0.0414,0.042,0.0363,0.0328,0.0306,0.0261,0.0223,0.0192,0.018,0.0177,0.0155,0.0109,0.0089,0.0082,0.0163,0.0162,0.0162,0.0082,0,0.0416,0.0468,0.0464,0.0517,0.0546,0.0524,0.0538,0.0532,0.0514,0.0508,0.0443,0.0428,0.0365,0.0352,0.0305,0.0224,0.0182,0.0216,0.0089,0.0086,0.0073,0.0077,0.0109,0.0041,0.0077,0.0077,0.0076,0,0.0462,0.0496,0.0554,0.0595,0.0605,0.0625,0.0652,0.0662,0.0637,0.0621,0.0587,0.0532,0.0477,0.0416,0.0289,0.0314,0.0221,0.0149,0.0144,0.0102,0.0057,0.0029,0.003,0.0067,0.0068,0.0069,0.0069,0,0.0511,0.0561,0.0615,0.0628,0.0663,0.0681,0.0699,0.0695,0.0722,0.0697,0.0706,0.062,0.0589,0.0461,0.031,0.0297,0.0165,0.0126,0.002,0.0018,0.0009,0.0007,0.0033,0.0033,0.0033,0.0034,0.0034,0,0.0562,0.0606,0.0642,0.0673,0.0742,0.0742,0.0807,0.0803,0.0819,0.087,0.0772,0.0786,0.0598,0.0497,0.0343,0.0176,0.0187,0.0032,-0.0003,0.0033,0.0033,0.0027,0.0027,0.0031,0.0031,0.0032,0.0032,0,0.0609,0.0627,0.0697,0.0746,0.0766,0.0819,0.0891,0.0941,0.0937,0.0999,0.0996,0.0912,0.0782,0.0585,0.0381,0.0234,0.0064,-0.0001,0.0057,0.003,-0.0068,-0.0063,-0.0129,-0.0131,-0.0132,-0.0133,-0.0133,0,0.0637,0.0676,0.0757,0.0806,0.0831,0.0909,0.0967,0.0999,0.1067,0.1087,0.1128,0.1015,0.0966,0.0654,0.0376,0.0105,0.0062,-0.0054,-0.008,-0.0056,-0.0084,-0.0077,-0.0072,-0.0068,-0.0068,-0.0069,-0.0069,0,0.0694,0.0717,0.0777,0.088,0.0953,0.1054,0.1141,0.1211,0.1261,0.1305,0.1343,0.1298,0.1012,0.0746,0.0366,0.018,-0.0012,-0.0067,-0.0057,-0.0028,-0.0004,-0.003,-0.0025,-0.007,-0.007,-0.007,-0.007,-0.007,0.0733,0.0786,0.0861,0.0962,0.1057,0.118,0.1268,0.1369,0.1479,0.1551,0.1505,0.1443,0.1141,0.066,0.033,-0.0026,-0.0007,-0.0137,-0.0134,-0.0131,-0.0106,-0.0085,-0.0162,-0.0162,-0.0162,-0.0162,-0.0163,0,0.0786,0.0845,0.0939,0.106,0.1174,0.1217,0.1375,0.1465,0.16,0.166,0.1683,0.1383,0.1077,0.0715,0.0201,-0.0103,-0.0126,-0.0212,-0.0168,-0.0163,-0.016,-0.0136,-0.0199,-0.0201,-0.0202,-0.0203,0,0,0.0812,0.0906,0.0955,0.1136,0.1229,0.1385,0.148,0.1606,0.1686,0.1739,0.1704,0.1632,0.1197,0.0816,0.0401,0.01,0.0036,0.0036,0.0102,0.021,0.0216,-0.0077,-0.0029,0,0,0,0,0]}],[{"header":{"parameterUnit":"m.s-1","parameterCategory":2,"la1":30.2991,"la2":30.254,"lo1":-89.0895,"lo2":-89.0444,"dy":0.0017,"dx":0.0017,"nx":28,"ny":28,"refTime":"2024-02-17T09:00:00:Z","depth":"4","parameterNumber":2,"parameterNumberName":"U-component_of_CURRENTS"},"data":[0,0,0,0,0,0,0,0,0,0,0,0,0,0,0,0,0,0,0,0,0,0,0,0,0,0,0,0,0,0,0,0,0,0,0,0,0,0,0,0,0,0,0,0,0,0,0,0,0,0,0,0,0,0,0,0,0,0,0.1917,0.1918,0,0.1978,0.1979,0.198,0.2036,0.2037,0.2037,0.2038,0.2112,0.2113,0.2114,0,0,0,0,0,0,0,0,0,0,0,0,0,0.1837,0.1838,0.1917,0.1918,0.1919,0.1978,0.1979,0.198,0.2036,0.2037,0.2038,0.2039,0.2112,0.2113,0.2115,0,0,0,0,0,0,0,0,0,0,0,0,0,0.1881,0.1839,0.1917,0.1955,0.196,0.1978,0.1979,0.198,0.2035,0.2037,0.2038,0.2039,0.2111,0.2113,0.2115,0.21,0,0,0.212,0.2121,0,0,0,0,0,0,0,0,0.1878,0.1883,0.1949,0.1953,0.1958,0.2002,0.1978,0.2021,0.2035,0.2005,0.2038,0.204,0.2077,0.2081,0.2087,0.2104,0.2107,0.212,0.2121,0.2122,0.2123,0,0,0,0,0,0,0,0.1875,0.1881,0.194,0.195,0.1955,0.1966,0.1973,0.1986,0.2032,0.2007,0.2012,0.2021,0.2079,0.2086,0.209,0.2108,0.212,0.2122,0.2123,0.2124,0.2239,0.2241,0,0,0,0,0,0,0.1871,0.1878,0.1938,0.1942,0.1922,0.1966,0.1975,0.1985,0.2031,0.204,0.202,0.2024,0.2082,0.2088,0.2093,0.2186,0.2122,0.2124,0.2125,0.2237,0.2239,0.2241,0,0,0,0,0,0,0.1869,0.1875,0.1935,0.1913,0.1921,0.1967,0.1978,0.1986,0.2035,0.2041,0.205,0.2066,0.2083,0.209,0.2145,0.2185,0.2125,0.2126,0.2234,0.2238,0.224,0.2304,0,0,0,0,0,0,0.1866,0.1874,0.1899,0.1912,0.1923,0.1973,0.1977,0.1986,0.2037,0.2043,0.2083,0.2088,0.2085,0.2142,0.2146,0.2187,0.2128,0.2232,0.2236,0.2239,0.2299,0.2309,0.2317,0,0,0,0,0,0.1863,0.1884,0.19,0.1908,0.1949,0.1974,0.1981,0.2015,0.2038,0.2064,0.2097,0.2089,0.2169,0.2145,0.215,0.2191,0.223,0.2235,0.2239,0.2295,0.2307,0.2317,0,0,0,0,0,0,0.1863,0.1892,0.191,0.194,0.197,0.1985,0.2019,0.2039,0.2084,0.2106,0.2111,0.2119,0.2185,0.218,0.2153,0.2237,0.22,0.2205,0.2241,0.2252,0.2261,0.2266,0.2129,0,0,0,0,0,0.1873,0.1902,0.1925,0.1956,0.1975,0.2006,0.2029,0.2053,0.2084,0.2108,0.2135,0.2168,0.2198,0.222,0.2244,0.2285,0.2285,0.2317,0.2326,0.2333,0.2342,0.2379,0.2392,0.2256,0.2256,0.2256,0,0,0.1883,0.1904,0.1922,0.196,0.1989,0.2018,0.2025,0.2073,0.2107,0.2107,0.2179,0.2204,0.2219,0.227,0.2299,0.2276,0.2373,0.2339,0.2345,0.235,0.2385,0.2398,0.2409,0.2259,0.2259,0.2258,0,0,0.1901,0.1938,0.1964,0.1991,0.2041,0.2057,0.208,0.2122,0.2159,0.2216,0.2232,0.2284,0.2327,0.2346,0.2359,0.243,0.2422,0.2446,0.2491,0.2527,0.2538,0.2548,0.2566,0.2577,0.2446,0.2446,0.2446,0,0.1916,0.1948,0.1977,0.2007,0.2039,0.2079,0.2115,0.2149,0.2207,0.2242,0.2252,0.2345,0.236,0.2419,0.2449,0.245,0.2466,0.2447,0.2538,0.2548,0.2556,0.2573,0.2584,0.245,0.2449,0.2449,0.2448,0,0.1938,0.1981,0.2002,0.2053,0.2091,0.2132,0.2176,0.2231,0.2282,0.2311,0.2401,0.2428,0.2482,0.2498,0.2497,0.2575,0.2565,0.2547,0.2507,0.2574,0.2587,0.2597,0.2455,0.2453,0.2452,0.2451,0,0,0.192,0.2003,0.2014,0.2044,0.2123,0.2144,0.2224,0.229,0.2344,0.241,0.2481,0.2543,0.2574,0.2591,0.2605,0.2637,0.2713,0.2629,0.2629,0.264,0.2795,0.2624,0.2619,0.2718,0.2721,0.2723,0.2778,0,0.1934,0.1989,0.2037,0.2099,0.2129,0.2202,0.2262,0.2332,0.2403,0.2479,0.2533,0.2603,0.2603,0.2646,0.2683,0.2712,0.2745,0.27,0.2734,0.2735,0.257,0.2626,0.273,0.2785,0.2788,0.279,0.2791,0,0.1929,0.1969,0.2037,0.2117,0.214,0.2193,0.2304,0.2364,0.2478,0.2538,0.2628,0.2672,0.2755,0.2736,0.2821,0.2799,0.2811,0.2818,0.282,0.2644,0.2583,0.2706,0.2809,0.2808,0.2806,0.2805,0.2804,0,0.1873,0.1961,0.2017,0.2046,0.2148,0.221,0.2275,0.2391,0.2461,0.2592,0.2658,0.275,0.2814,0.2854,0.2887,0.2871,0.2959,0.2927,0.2782,0.277,0.2878,0.2867,0.2982,0.2982,0.2982,0.2982,0.2981,0,0.1842,0.1885,0.2,0.2025,0.2098,0.2184,0.2284,0.2367,0.2502,0.2575,0.2689,0.2754,0.2853,0.2912,0.2921,0.2882,0.2989,0.2798,0.2775,0.2904,0.2895,0.2885,0.2873,0.2984,0.2983,0.2983,0.2982,0,0.1767,0.1847,0.1909,0.203,0.2076,0.213,0.2288,0.2346,0.249,0.2598,0.2648,0.2791,0.2859,0.2925,0.2989,0.2905,0.2893,0.2852,0.2993,0.2977,0.2671,0.2662,0.2685,0.2679,0.2675,0.2671,0.2668,0,0.173,0.1759,0.1898,0.1942,0.201,0.2111,0.2177,0.2331,0.2399,0.2591,0.2622,0.2755,0.2824,0.2769,0.2857,0.2853,0.2821,0.2786,0.2717,0.2667,0.2643,0.2642,0.2639,0.266,0.2659,0.2658,0.2657,0,0.1655,0.1729,0.1782,0.1875,0.1955,0.2024,0.2134,0.2169,0.2334,0.2489,0.2525,0.2555,0.2625,0.2657,0.2676,0.2671,0.2789,0.2737,0.2745,0.268,0.2637,0.2618,0.2621,0.264,0.2643,0.2644,0.2645,0,0.1608,0.1627,0.1714,0.1778,0.187,0.1898,0.1972,0.2035,0.2117,0.2322,0.233,0.2462,0.2596,0.2565,0.2586,0.2565,0.2521,0.2418,0.2443,0.2462,0.2363,0.2274,0.2151,0,0,0,0,0,0.1543,0.1549,0.1604,0.1657,0.1742,0.1794,0.192,0.1997,0.216,0.2124,0.2219,0.2268,0.2293,0.2369,0.2302,0.2501,0.254,0.2412,0.2436,0.2551,0.2569,0.2473,0,0,0,0,0,0,0.1496,0.1545,0.1558,0.1541,0.1555,0.1626,0.1696,0.1808,0.1799,0.1972,0.1999,0.2127,0.2193,0.2305,0.2257,0.228,0.2245,0.2505,0.2499,0.254,0.2557,0.2572,0.2479,0,0,0,0,0]},{"header":{"parameterUnit":"m.s-1","parameterCategory":2,"la1":30.2991,"la2":30.254,"lo1":-89.0895,"lo2":-89.0444,"dy":0.0017,"dx":0.0017,"nx":28,"ny":28,"refTime":"2024-02-17T09:00:00:Z","depth":"4","parameterNumber":3,"parameterNumberName":"V-component_of_CURRENTS"},"data":[0,0,0,0,0,0,0,0,0,0,0,0,0,0,0,0,0,0,0,0,0,0,0,0,0,0,0,0,0,0,0,0,0,0,0,0,0,0,0,0,0,0,0,0,0,0,0,0,0,0,0,0,0,0,0,0,0,0,0.0228,0.0228,0,0.02,0.02,0.0199,0.0181,0.0181,0.0181,0.0181,0.0134,0.0133,0.0132,0,0,0,0,0,0,0,0,0,0,0,0,0,0.0226,0.0226,0.0228,0.0228,0.0227,0.02,0.02,0.0199,0.0181,0.0181,0.0181,0.0181,0.0134,0.0133,0.0132,0,0,0,0,0,0,0,0,0,0,0,0,0,0.0215,0.0227,0.0228,0.0216,0.0214,0.02,0.02,0.0199,0.0181,0.0181,0.0181,0.018,0.0135,0.0133,0.0131,0.0121,0,0,0.0126,0.0125,0,0,0,0,0,0,0,0,0.0215,0.0214,0.0218,0.0216,0.0215,0.0195,0.0182,0.0172,0.0181,0.0192,0.0181,0.018,0.0153,0.015,0.0144,0.0119,0.0117,0.0126,0.0125,0.0124,0.0123,0,0,0,0,0,0,0,0.0216,0.0215,0.0216,0.0217,0.0216,0.0198,0.0197,0.018,0.0172,0.0191,0.019,0.0189,0.0152,0.0145,0.0142,0.0116,0.0126,0.0124,0.0123,0.0122,0.0084,0.0084,0,0,0,0,0,0,0.0224,0.0216,0.0217,0.0215,0.0216,0.0199,0.0197,0.02,0.0173,0.0169,0.0189,0.0188,0.0148,0.0144,0.0141,0.0142,0.0124,0.0122,0.0121,0.0084,0.0084,0.0084,0,0,0,0,0,0,0.0224,0.0225,0.0218,0.0216,0.0214,0.0199,0.0203,0.02,0.0198,0.0171,0.0167,0.0191,0.0148,0.0143,0.0133,0.014,0.0121,0.012,0.0084,0.0084,0.0084,0.0136,0,0,0,0,0,0,0.0224,0.0225,0.0231,0.0216,0.0214,0.0217,0.0203,0.0199,0.0198,0.0197,0.0172,0.0167,0.0148,0.0136,0.0132,0.0137,0.0118,0.0084,0.0084,0.0084,0.0134,0.0137,0.014,0,0,0,0,0,0.0224,0.0236,0.0232,0.0232,0.0223,0.0217,0.0214,0.0203,0.0198,0.02,0.0185,0.0168,0.0134,0.0135,0.013,0.0134,0.0084,0.0084,0.0084,0.0132,0.0137,0.014,0,0,0,0,0,0,0.0238,0.0235,0.023,0.024,0.0232,0.0215,0.0217,0.0208,0.0197,0.0198,0.0172,0.0166,0.0159,0.0139,0.0141,0.0122,0.0105,0.0104,0.0143,0.0147,0.015,0.0167,0.0117,0,0,0,0,0,0.0244,0.0253,0.0243,0.0251,0.0249,0.0234,0.0231,0.0224,0.0212,0.0207,0.0189,0.0169,0.0153,0.0145,0.0127,0.0119,0.0093,0.0117,0.012,0.0123,0.0132,0.0095,0.0096,0.0085,0.0085,0.0085,0,0,0.0252,0.0251,0.0256,0.0254,0.0247,0.0255,0.0232,0.0233,0.0239,0.0204,0.0206,0.0182,0.0154,0.0146,0.014,0.0131,0.0112,0.0124,0.0127,0.0134,0.0095,0.0097,0.0098,0.0085,0.0085,0.0085,0,0,0.0273,0.0271,0.0286,0.0284,0.028,0.0273,0.0277,0.0264,0.0258,0.0254,0.023,0.0212,0.0188,0.0169,0.0157,0.0166,0.0132,0.0158,0.019,0.0154,0.0155,0.0155,0.0123,0.012,0.016,0.016,0.016,0,0.0281,0.03,0.0288,0.03,0.0307,0.0286,0.0305,0.0295,0.028,0.0278,0.0262,0.0227,0.02,0.0191,0.0193,0.0175,0.015,0.0179,0.0159,0.0159,0.0158,0.0125,0.0121,0.0162,0.0162,0.0162,0.0162,0,0.0311,0.0327,0.0335,0.0349,0.0353,0.0365,0.0355,0.0353,0.0343,0.033,0.0317,0.0277,0.0258,0.0241,0.022,0.0207,0.0188,0.0169,0.0152,0.0163,0.0127,0.0122,0.0166,0.0165,0.0164,0.0164,0,0,0.033,0.0353,0.0357,0.0378,0.0383,0.0394,0.0403,0.0407,0.0419,0.0387,0.0394,0.0353,0.0328,0.0312,0.0278,0.0243,0.0212,0.021,0.0207,0.0184,0.0136,0.0116,0.0108,0.0189,0.0188,0.0188,0.0112,0,0.0359,0.04,0.0402,0.0446,0.0471,0.046,0.0473,0.0472,0.0461,0.0459,0.041,0.0403,0.0357,0.0349,0.0308,0.0239,0.0202,0.0235,0.0123,0.012,0.0106,0.0103,0.0186,0.0108,0.0107,0.0106,0.0105,0,0.0389,0.0417,0.0467,0.0507,0.0516,0.0537,0.0564,0.0574,0.0557,0.0548,0.0525,0.0484,0.0439,0.0394,0.0284,0.0308,0.023,0.0169,0.0164,0.0127,0.0092,0.0093,0.0096,0.0097,0.0097,0.0098,0.0098,0,0.0418,0.0464,0.0511,0.0524,0.056,0.0581,0.0601,0.0602,0.0626,0.0609,0.0619,0.0549,0.0524,0.0419,0.0291,0.0287,0.0161,0.0137,0.0046,0.0044,0.0062,0.0062,0.0057,0.0057,0.0057,0.0057,0.0057,0,0.0449,0.0488,0.0532,0.0557,0.062,0.0628,0.0687,0.0688,0.0705,0.0739,0.0674,0.0674,0.0528,0.0437,0.0313,0.0167,0.0175,0.0053,0.0023,0.0085,0.0088,0.0058,0.0059,0.0054,0.0055,0.0055,0.0056,0,0.0472,0.0497,0.0558,0.0611,0.0636,0.0683,0.0756,0.0795,0.0801,0.0842,0.0842,0.0769,0.0647,0.0491,0.0314,0.0204,0.006,0.0005,0.0089,0.0064,-0.004,-0.0035,-0.0102,-0.0103,-0.0105,-0.0105,-0.0106,0,0.0485,0.0519,0.0603,0.0648,0.0677,0.0753,0.0805,0.0842,0.0891,0.0899,0.092,0.082,0.0746,0.0494,0.0317,0.0075,0.0036,-0.0043,-0.005,-0.0033,-0.0056,-0.0049,-0.0043,-0.0108,-0.0108,-0.0109,-0.0109,0,0.0512,0.0543,0.0596,0.0691,0.0761,0.0848,0.0925,0.0966,0.1006,0.1014,0.0983,0.0847,0.0707,0.0498,0.0308,0.0134,0.0005,-0.0055,-0.0054,-0.0062,-0.0041,-0.0061,-0.0054,-0.0113,-0.0112,-0.0112,-0.0112,0,0.0531,0.0573,0.0643,0.0729,0.0824,0.0911,0.0952,0.1005,0.1049,0.1051,0.1037,0.0882,0.0793,0.0529,0.0356,0.0178,0.0126,0.006,0.0054,0.0056,0.0116,0.0166,0.0135,0,0,0,0,0,0.0548,0.0595,0.0674,0.0768,0.0866,0.0925,0.102,0.1054,0.1091,0.1078,0.106,0.0928,0.0665,0.0558,0.0377,0.0319,0.0086,0.0097,0.0005,-0.0134,-0.013,-0.0089,0,0,0,0,0,0,0.0556,0.063,0.0671,0.079,0.0861,0.0973,0.1037,0.1062,0.1058,0.1061,0.0933,0.0869,0.0623,0.0769,0.037,0.0316,0.0228,-0.0019,-0.0023,-0.0137,-0.0133,-0.0129,-0.0086,0,0,0,0,0]}]]